[[{"header":{"parameterUnit":"m.s-1","parameterCategory":1,"la1":30.2991,"la2":30.254,"lo1":-89.0895,"lo2":-89.0444,"dy":0.0017,"dx":0.0017,"nx":28,"ny":28,"refTime":"2024-06-16T09:00:00:Z","depth":0,"parameterNumber":2,"parameterNumberName":"U-component_of_WINDS"},"data":[0,0,0,0,0,0,0,0,0,0,0,0,0,0,0,0,0,0,0,0,0,0,0,0,0,0,0,0,0,0,0,0,0,0,0,0,0,0,0,0,0,0,0,0,0,0,0,0,0,0,0,0,0,0,0,0,0,0,-4.057,-4.057,0,-4.0576,-4.0576,-4.0576,-4.0506,-4.0504,-4.0502,-4.0501,-4.0505,-4.0507,-4.0509,0,0,0,0,0,0,0,0,0,0,0,0,0,-4.0498,-4.0499,-4.057,-4.057,-4.057,-4.0576,-4.0576,-4.0576,-4.0507,-4.0504,-4.0502,-4.05,-4.0505,-4.0507,-4.0509,0,0,0,0,0,0,0,0,0,0,0,0,0,-4.0519,-4.05,-4.057,-4.0536,-4.0533,-4.0576,-4.0576,-4.0576,-4.0507,-4.0504,-4.0501,-4.0499,-4.0504,-4.0507,-4.051,-4.0585,0,0,-4.0518,-4.052,0,0,0,0,0,0,0,0,-4.0518,-4.0522,-4.0541,-4.0539,-4.0535,-4.0537,-4.0552,-4.0579,-4.0508,-4.0517,-4.05,-4.0497,-4.0518,-4.052,-4.0527,-4.0585,-4.0585,-4.0519,-4.052,-4.0521,-4.0522,0,0,0,0,0,0,0,-4.0516,-4.0521,-4.0572,-4.0542,-4.0538,-4.052,-4.052,-4.0557,-4.0534,-4.0516,-4.0511,-4.0513,-4.0516,-4.0525,-4.0527,-4.0585,-4.0518,-4.0521,-4.0523,-4.0524,-4.0702,-4.0705,0,0,0,0,0,0,-4.052,-4.052,-4.0572,-4.0573,-4.0519,-4.0524,-4.0524,-4.054,-4.0533,-4.0529,-4.0515,-4.0509,-4.0521,-4.0523,-4.0527,-4.0611,-4.0521,-4.0524,-4.0526,-4.0699,-4.0703,-4.0706,0,0,0,0,0,0,-4.0518,-4.0525,-4.0572,-4.0545,-4.055,-4.0528,-4.0547,-4.0541,-4.0549,-4.0532,-4.0528,-4.0528,-4.0519,-4.0523,-4.057,-4.0611,-4.0525,-4.0528,-4.0696,-4.0701,-4.0705,-4.0783,0,0,0,0,0,0,-4.0517,-4.0525,-4.0553,-4.0546,-4.0551,-4.0616,-4.0549,-4.0544,-4.0555,-4.0547,-4.0543,-4.054,-4.0517,-4.0566,-4.0573,-4.0613,-4.053,-4.0692,-4.0698,-4.0703,-4.0777,-4.079,-4.0801,0,0,0,0,0,-4.0514,-4.0575,-4.0555,-4.0562,-4.0587,-4.0619,-4.0621,-4.0594,-4.0558,-4.0586,-4.0575,-4.054,-4.0606,-4.0572,-4.0579,-4.062,-4.0689,-4.0696,-4.0703,-4.0771,-4.0787,-4.0801,0,0,0,0,0,0,-4.0587,-4.0574,-4.0551,-4.0612,-4.0617,-4.0607,-4.0641,-4.0612,-4.0627,-4.0619,-4.0585,-4.0585,-4.0637,-4.0634,-4.0596,-4.0692,-4.0641,-4.065,-4.0691,-4.0706,-4.0718,-4.0716,-4.0533,0,0,0,0,0,-4.0611,-4.0638,-4.0625,-4.068,-4.0684,-4.0662,-4.0675,-4.0654,-4.0658,-4.0659,-4.0651,-4.0656,-4.0677,-4.0692,-4.0711,-4.0778,-4.0774,-4.081,-4.0822,-4.0832,-4.0838,-4.0871,-4.0885,-4.0729,-4.0729,-4.0729,0,0,-4.0659,-4.0655,-4.0674,-4.0695,-4.0696,-4.0724,-4.0664,-4.0697,-4.0717,-4.0664,-4.0707,-4.0703,-4.0705,-4.0762,-4.0787,-4.0761,-4.0881,-4.084,-4.0849,-4.0849,-4.0879,-4.0894,-4.0907,-4.0733,-4.0732,-4.0732,0,0,-4.076,-4.0761,-4.0806,-4.0808,-4.0811,-4.0797,-4.0808,-4.0802,-4.0797,-4.084,-4.08,-4.0824,-4.0863,-4.0866,-4.0872,-4.0976,-4.0943,-4.0983,-4.1045,-4.1077,-4.1089,-4.11,-4.1133,-4.1146,-4.0991,-4.0991,-4.0991,0,-4.0819,-4.086,-4.0832,-4.0867,-4.0876,-4.0831,-4.0875,-4.0879,-4.0888,-4.0895,-4.0867,-4.0913,-4.0912,-4.0968,-4.0993,-4.1001,-4.1011,-4.0981,-4.109,-4.11,-4.111,-4.1141,-4.1155,-4.0996,-4.0995,-4.0995,-4.0994,0,-4.0931,-4.096,-4.0996,-4.1005,-4.1019,-4.1059,-4.1036,-4.1054,-4.1032,-4.1021,-4.1065,-4.1063,-4.1079,-4.1092,-4.1072,-4.1144,-4.1128,-4.1096,-4.1044,-4.113,-4.1159,-4.1171,-4.1002,-4.1001,-4.0999,-4.0998,0,0,-4.1075,-4.1069,-4.1082,-4.1085,-4.1086,-4.1108,-4.1146,-4.1162,-4.1176,-4.1185,-4.1214,-4.1249,-4.1218,-4.1226,-4.1206,-4.1234,-4.1313,-4.1198,-4.1197,-4.1216,-4.139,-4.1411,-4.1426,-4.1293,-4.1295,-4.1297,-4.1388,0,-4.117,-4.1233,-4.121,-4.1274,-4.1299,-4.1257,-4.129,-4.1293,-4.1284,-4.1304,-4.1294,-4.1317,-4.1277,-4.1281,-4.1308,-4.1298,-4.1346,-4.1291,-4.1317,-4.1318,-4.1313,-4.1442,-4.1464,-4.1551,-4.14,-4.1402,-4.1403,0,-4.1289,-4.1302,-4.1369,-4.1364,-4.1373,-4.1403,-4.1415,-4.1436,-4.1439,-4.1431,-4.144,-4.1413,-4.1449,-4.14,-4.1448,-4.1411,-4.1421,-4.1417,-4.142,-4.1418,-4.1363,-4.1439,-4.1578,-4.1589,-4.1422,-4.142,-4.1419,0,-4.1383,-4.1418,-4.1461,-4.1466,-4.1462,-4.1483,-4.1483,-4.1483,-4.1494,-4.1506,-4.1513,-4.1529,-4.1537,-4.155,-4.1528,-4.1496,-4.1578,-4.1528,-4.157,-4.157,-4.1585,-4.1584,-4.1723,-4.1599,-4.1599,-4.1598,-4.1598,0,-4.1489,-4.1531,-4.1503,-4.1529,-4.1575,-4.1548,-4.1593,-4.1588,-4.1589,-4.1613,-4.1579,-4.1603,-4.1574,-4.1595,-4.1579,-4.1619,-4.1624,-4.1617,-4.1611,-4.1617,-4.1618,-4.162,-4.1612,-4.1602,-4.1601,-4.16,-4.16,0,-4.16,-4.1583,-4.1628,-4.1621,-4.162,-4.1653,-4.1647,-4.1671,-4.166,-4.1691,-4.1697,-4.168,-4.1702,-4.1683,-4.1705,-4.1694,-4.1747,-4.1735,-4.1745,-4.174,-4.1781,-4.1776,-4.1924,-4.1941,-4.1809,-4.181,-4.1812,0,-4.1667,-4.1698,-4.1694,-4.1708,-4.171,-4.1733,-4.1744,-4.172,-4.1733,-4.1739,-4.1761,-4.1781,-4.1795,-4.1833,-4.1822,-4.1839,-4.1824,-4.1875,-4.1826,-4.1831,-4.1821,-4.1817,-4.1819,-4.1883,-4.1885,-4.1886,-4.1887,0,-4.1787,-4.1777,-4.1794,-4.1809,-4.1824,-4.1835,-4.1842,-4.1856,-4.1831,-4.1847,-4.187,-4.1881,-4.1903,-4.1922,-4.1935,-4.1934,-4.1906,-4.1904,-4.1913,-4.1918,-4.1921,-4.1916,-4.1768,-4.1899,-4.1898,-4.1897,-4.1897,-4.1896,-4.1875,-4.1899,-4.19,-4.1921,-4.1925,-4.1933,-4.1954,-4.1946,-4.1965,-4.1981,-4.1966,-4.1993,-4.1995,-4.2009,-4.2012,-4.2032,-4.201,-4.2025,-4.2028,-4.2032,-4.2036,-4.1922,-4.2035,-4.2034,-4.2034,-4.2034,-4.2033,0,-4.1989,-4.1988,-4.2008,-4.2019,-4.2036,-4.201,-4.2017,-4.2032,-4.2056,-4.206,-4.2075,-4.21,-4.2119,-4.2111,-4.2127,-4.2144,-4.2132,-4.2149,-4.2145,-4.2145,-4.2056,-4.2044,-4.2159,-4.2159,-4.2159,-4.2159,-4.2159,-4.2159,-4.2051,-4.209,-4.2081,-4.2121,-4.212,-4.2146,-4.2152,-4.2159,-4.2162,-4.2192,-4.2207,-4.2202,-4.2201,-4.2217,-4.2232,-4.2229,-4.2235,-4.2256,-4.2249,-4.2164,-4.2152,-4.214,-4.2128,-4.2259,-4.2259,-4.2336,-4.2336,-4.2337]},{"header":{"parameterUnit":"m.s-1","parameterCategory":1,"la1":30.2991,"la2":30.254,"lo1":-89.0895,"lo2":-89.0444,"dy":0.0017,"dx":0.0017,"nx":28,"ny":28,"refTime":"2024-06-16T09:00:00:Z","depth":0,"parameterNumber":3,"parameterNumberName":"V-component_of_WINDS"},"data":[0,0,0,0,0,0,0,0,0,0,0,0,0,0,0,0,0,0,0,0,0,0,0,0,0,0,0,0,0,0,0,0,0,0,0,0,0,0,0,0,0,0,0,0,0,0,0,0,0,0,0,0,0,0,0,0,0,0,2.5944,2.5944,0,2.5945,2.5945,2.5945,2.5872,2.587,2.5868,2.5867,2.5866,2.5868,2.587,0,0,0,0,0,0,0,0,0,0,0,0,0,2.5879,2.5881,2.5944,2.5944,2.5944,2.5945,2.5945,2.5945,2.5873,2.587,2.5868,2.5866,2.5866,2.5868,2.587,0,0,0,0,0,0,0,0,0,0,0,0,0,2.5896,2.5881,2.5944,2.5908,2.5905,2.5945,2.5945,2.5945,2.5873,2.587,2.5867,2.5865,2.5865,2.5867,2.587,2.5944,0,0,2.5878,2.5879,0,0,0,0,0,0,0,0,2.5895,2.5899,2.5913,2.5911,2.5907,2.5906,2.5922,2.5945,2.5874,2.5885,2.5867,2.5863,2.5882,2.5883,2.5889,2.5944,2.5944,2.5878,2.588,2.5881,2.5882,0,0,0,0,0,0,0,2.5894,2.5898,2.5944,2.5914,2.591,2.5892,2.5891,2.5926,2.5899,2.5884,2.5879,2.588,2.5879,2.5887,2.5889,2.5944,2.5878,2.5881,2.5882,2.5883,2.606,2.6063,0,0,0,0,0,0,2.5898,2.5898,2.5944,2.5944,2.5894,2.5895,2.5894,2.5909,2.5899,2.5895,2.5882,2.5877,2.5884,2.5886,2.5888,2.5974,2.5881,2.5884,2.5885,2.6057,2.6061,2.6064,0,0,0,0,0,0,2.5897,2.5903,2.5944,2.592,2.5924,2.5899,2.5916,2.5911,2.5918,2.5898,2.5892,2.5895,2.5881,2.5884,2.5931,2.5973,2.5885,2.5887,2.6053,2.6058,2.6062,2.6145,0,0,0,0,0,0,2.5896,2.5903,2.5931,2.5921,2.5925,2.5987,2.5919,2.5913,2.5923,2.5915,2.5908,2.5904,2.5879,2.5927,2.5934,2.5975,2.5889,2.6049,2.6055,2.6061,2.6139,2.6152,2.6164,0,0,0,0,0,2.5893,2.5954,2.5933,2.5939,2.596,2.599,2.5992,2.5963,2.5927,2.5954,2.5941,2.5904,2.5968,2.5933,2.5939,2.5982,2.6046,2.6054,2.606,2.6133,2.615,2.6164,0,0,0,0,0,0,2.5968,2.5952,2.5928,2.5987,2.5991,2.5977,2.6011,2.5981,2.5995,2.5987,2.595,2.5949,2.6001,2.5996,2.5958,2.6053,2.6,2.6009,2.6054,2.6069,2.6082,2.6081,2.5892,0,0,0,0,0,2.5992,2.6019,2.6002,2.6056,2.6059,2.6036,2.6047,2.6025,2.6027,2.6027,2.6018,2.6021,2.6041,2.6055,2.6073,2.6139,2.6136,2.6171,2.6184,2.6194,2.6201,2.6236,2.6251,2.6087,2.6087,2.6087,0,0,2.6041,2.6035,2.6054,2.6071,2.6071,2.6099,2.6037,2.6069,2.6089,2.6032,2.6075,2.6069,2.6069,2.6126,2.615,2.6123,2.6247,2.6203,2.6212,2.6213,2.6244,2.626,2.6274,2.6091,2.6091,2.609,0,0,2.6143,2.6142,2.6186,2.6188,2.6189,2.6173,2.6184,2.6176,2.617,2.6213,2.6171,2.6194,2.623,2.6232,2.6238,2.6344,2.631,2.6351,2.6416,2.6449,2.6462,2.6474,2.651,2.6524,2.6359,2.6359,2.6359,0,2.6203,2.6243,2.6213,2.6248,2.6257,2.6208,2.6253,2.6256,2.6262,2.6269,2.624,2.6285,2.6282,2.6338,2.6364,2.637,2.6381,2.635,2.6463,2.6474,2.6484,2.6519,2.6533,2.6364,2.6363,2.6363,2.6362,0,2.6316,2.6345,2.6381,2.639,2.6403,2.6443,2.6418,2.6435,2.6412,2.64,2.6444,2.6439,2.6455,2.6467,2.6445,2.6521,2.6504,2.647,2.6416,2.6505,2.6537,2.655,2.6371,2.6369,2.6367,2.6366,0,0,2.6463,2.6456,2.647,2.6473,2.6472,2.6493,2.6531,2.6548,2.6563,2.657,2.66,2.6633,2.6601,2.6608,2.6586,2.6616,2.6699,2.6577,2.6577,2.6599,2.6781,2.6806,2.6822,2.6677,2.668,2.6682,2.678,0,2.6561,2.6626,2.66,2.6666,2.6693,2.6648,2.6681,2.6684,2.6674,2.6694,2.6682,2.6706,2.6663,2.6667,2.6694,2.6683,2.6734,2.6675,2.6704,2.6705,2.6703,2.6838,2.6864,2.6958,2.6793,2.6795,2.6796,0,2.6684,2.6697,2.6766,2.6761,2.6771,2.6801,2.6814,2.6835,2.6837,2.6827,2.6836,2.6808,2.6844,2.6793,2.6842,2.6803,2.6813,2.681,2.6813,2.6813,2.6755,2.684,2.6987,2.7,2.6816,2.6814,2.6813,0,2.6783,2.6818,2.6863,2.6868,2.6863,2.6886,2.6885,2.6884,2.6896,2.6908,2.6915,2.6931,2.694,2.6953,2.6929,2.6894,2.6982,2.6928,2.6974,2.6975,2.6993,2.6992,2.7142,2.7003,2.7003,2.7002,2.7002,0,2.6894,2.6938,2.6908,2.6936,2.6984,2.6955,2.7003,2.6997,2.6997,2.7023,2.6986,2.7011,2.6979,2.7001,2.6984,2.7027,2.7032,2.7024,2.7019,2.7027,2.7027,2.7032,2.7024,2.7006,2.7005,2.7005,2.7004,0,2.7011,2.6993,2.704,2.7033,2.7032,2.7068,2.7061,2.7086,2.7074,2.7108,2.7114,2.7095,2.7119,2.7098,2.7121,2.7109,2.7166,2.7152,2.7165,2.7161,2.7207,2.7203,2.7364,2.7383,2.7234,2.7235,2.7236,0,2.7083,2.7115,2.7112,2.7127,2.7129,2.7154,2.7166,2.7139,2.7153,2.7159,2.7184,2.7205,2.7221,2.7261,2.7249,2.7267,2.7252,2.7307,2.7254,2.7261,2.7251,2.7249,2.7252,2.7317,2.7319,2.732,2.7322,0,2.7211,2.7201,2.722,2.7237,2.7253,2.7264,2.7273,2.7288,2.726,2.7278,2.7303,2.7315,2.7339,2.736,2.7374,2.7373,2.7343,2.7339,2.735,2.7358,2.7364,2.736,2.7193,2.7335,2.7333,2.7332,2.7332,2.7331,2.7306,2.7333,2.7336,2.7359,2.7363,2.7372,2.7396,2.7388,2.7408,2.7426,2.7409,2.7439,2.7441,2.7457,2.7459,2.7482,2.7459,2.7475,2.7479,2.7483,2.749,2.7362,2.7485,2.7484,2.7484,2.7483,2.7483,0,2.7431,2.7431,2.7453,2.7467,2.7485,2.7457,2.7465,2.7482,2.7509,2.7514,2.7531,2.7559,2.758,2.7571,2.7589,2.7609,2.7596,2.7614,2.7612,2.7612,2.751,2.7498,2.7625,2.7625,2.7625,2.7625,2.7625,2.7625,2.7498,2.7543,2.7533,2.758,2.7579,2.7608,2.7615,2.7624,2.7628,2.7662,2.7679,2.7673,2.7673,2.7691,2.7709,2.7705,2.7713,2.7737,2.7729,2.7633,2.7619,2.7606,2.7594,2.7739,2.7739,2.7828,2.7829,2.783]}]]